"Pseudo-MPEC" for P10OSOe

Created 2019 Jun 19 16:07:38 UT using Find_Orb

Click here for an explanation of pseudo-MPECs

 
 Astrometry: 
     P10OSOe  C2019 06 09%^2yHxn)XplO3,ca3N68?*3SY?6Tbp9NoaMcj_464GBwbULyGE]ZF51
     P10OSOe  C2019 06 09H7[[0q6Lg)6j'T5fh%UiHRRWX+%$h_YtaCFQo3Zp$%QXnssCA%uSF51
     P10OSOe  C2019 06 098Z2IKv\F]liOYIE](QovIIpBmk!Bx9#0/\+\CB(fra5qyHHnqrdmF51
     P10OSOe  C2019 06 09e0Ia.d?LDU1a7.]?t/Zd[Y\](P/ToVs%%Zgvy`C;3^,vv%J_`4@sF51
     P10OSOe IC2019 06 10pXU!gcpw\OW=SWU9rBRY(^CgxWbL(@')akS^M\;DRH:/#.(:;rByL01
     P10OSOe IC2019 06 10;cRsK$UE+8`PEEX':Ycqi@%K@?f9;eT$='Pu6O'N6Ws5i)l4F=#gL01
     P10OSOe IC2019 06 10BNa;nTV3cZ+jd[:-/P?]?.7HTKoq(6m0w.$Rd8oEw9/#t#1^S*ALL01
     P10OSOe KC2019 06 10l2u!8DL@Z@+W(ccmUXlAstrometryRLUVFYA*fK%9q8hLP2yJl?UL01
     P10OSOe  C2019 06 12.42749 21 42 04.69 +04 34 58.4    ~6CAq 21.1 GVNEOCPI52
     P10OSOe  C2019 06 12.43011 21 42 05.83 +04 34 45.5    ~6CAq 20.3 GVNEOCPI52
     P10OSOe  C2019 06 12.43537 21 42 08.11 +04 34 21.5    ~6CAq 21.1 GVNEOCPI52
     P10OSOe KC2019 06 13#GsAnNS:'%p]L)X0o)6bTNP'Xb(.y821-I9`c@@YWlb52rltM@%.734
     P10OSOe KC2019 06 13Rg45PgMA8IjQcTL)g)OP?Rbkx6s;K]:`3[gO#YRm1;!7Ei@t?9[+734
     P10OSOe KC2019 06 13YK#Rg*#Jx7Z+@7er^P3`gredacted;2OaaHUA]`.=ROG0SNj430K734
     P10OSOe  C2019 06 13R(/\pI#\ReC@?7ZsFQOy6)Ssg+^8^@!t6%xsW=pX7iIKcICyUY(.F51
     P10OSOe  C2019 06 13QUclicku6mgN4CIJHGw%H7UkaT0\Qc8dEF;!BRH/\,)aT*^ZhereF51
     P10OSOe  C2019 06 13H`KWR27`wt8`2`Xr;T$cd^FJh-%rE9u,dR8Qjx(jBPm(.?CcC-'[F51
     P10OSOe KC2019 06 14SQI:0v_IqEh#]?G\forGeiexplanation;Mr$logiHK/StIdJcgAH21
     P10OSOe KC2019 06 14.UyltF(u2b?'67+(,LLcNwL(KPFv93q!ipG==)m)l20(#pd/B6LqH21
     P10OSOe KC2019 06 143yS_Oy5Bf,C/Wk'tttWf`gHc73LZIy+7R8P'keIWKFA(7HVfv3,\H21

Station data:
(734) Farpoint Observatory, Eskridge  (N38.890107 W96.001400)  US/Kansas.
   Observer G. Hug. 0.69-m reflector + CCD.
(F51) Pan-STARRS 1, Haleakala  (N20.707235 W156.255910)  US/Hawaii.
   Observers N. Primak, A. Schultz, S. Watters, J. Thiel, T. Goggia. Measurer
   PS1 Science Consortium. 1.8-m Ritchey-Chrétien + CCD.
(H21) Astronomical Research Observatory, Westfield  (N39.483057 W87.968270)
   US/Illinois. 0.76-m f/3.0 astrograph + CCD.
(I52) Steward Observatory, Mt. Lemmon Station  (N32.442547 W110.788920)
   US/Arizona.  Observers T. A. Pruyne, B. M. Africano, E. J. Christensen, G.
   A. Farneth, D. C. Fuls, A. R. Gibbs, A. D. Grauer, H. Groeller, J. A.
   Johnson, R. A. Kowalski, S. M. Larson, G. J. Leonard, R. L. Seaman, F. C.
   Shelly. 1.0-m reflector + CCD.
(L01) Višnjan Observatory, Tičan  (N45.290900 E13.749300)  Croatia.
   Observers K. Korlević, E. Pettarin. Measurer E. Pettarin. 1.0-m f/2.9
   reflector + CCD.

Orbital elements:  P10OSOe
   Perihelion 2019 Jul 5.735427 +/- 0.0865 TT = 17:39:00 (JD 2458670.235427)
Epoch 2019 Jun 14.0 TT = JDT 2458648.5   Earth MOID: 0.0414   Ma: 0.0053
M 346.01656494 +/- 0.16             (J2000 ecliptic)          AutoNEOCP
n   0.64334760 +/- 0.00499          Peri.  194.97262 +/- 0.07
a   1.32894066 +/- 0.00687          Node    94.99679 +/- 0.06
e   0.2080853 +/- 0.00372           Incl.   14.58457 +/- 0.14
P   1.53/559.56d           H 22.9   G  0.15   U  9.2  
q 1.05240762 +/- 0.000492    Q 1.60547369 +/- 0.0132
From 20 observations 2019 June 9-14; mean residual 0".40
Residuals in arcseconds: 
190609 F51  .05-  .09-    190610 L01  .32-  .69+    190613 F51  .03-  .03+    
190609 F51  .17+  .17-    190612 I52  .35-  .44+    190613 F51  .18-  .01+    
190609 F51  .16+  .18-    190612 I52  .34-  .42-    190613 F51  .11+  .13+    
190609 F51  .08+  .07-    190612 I52  .44-  .23-    190614 H21  .15-  .60+    
190610 L01  .31+  .30-    190613 734  .62-  .32-    190614 H21  .35+  .55+    
190610 L01  .08+  .67+    190613 734  .95+  .68-    190614 H21  .10+  .35+    
190610 L01  .00   .14+    190613 734  .23+  1.1-    

Ephemerides (geocentric):
Date (UTC) HH   RA              Dec         delta   r     elong  mag " sig PA
---- -- -- --  -------------   -----------  ------ ------ -----  --- ---- ---
2019 06 19 16  22 40 43.560   -05 46 49.80  .11907 1.0595 108.3 20.7 1.32   4
2019 06 19 17  22 41 04.738   -05 50 40.02  .11905 1.0595 108.3 20.7 1.33   4
2019 06 19 18  22 41 25.923   -05 54 30.30  .11903 1.0594 108.3 20.7 1.34   4
2019 06 19 19  22 41 47.114   -05 58 20.65  .11901 1.0594 108.2 20.7 1.35   5
2019 06 19 20  22 42 08.312   -06 02 11.05  .11899 1.0594 108.2 20.7 1.36   5
2019 06 19 21  22 42 29.515   -06 06 01.52  .11897 1.0593 108.2 20.7 1.37   5
2019 06 19 22  22 42 50.725   -06 09 52.05  .11895 1.0593 108.2 20.7 1.38   6
2019 06 19 23  22 43 11.941   -06 13 42.63  .11893 1.0593 108.2 20.7 1.39   6
2019 06 20 00  22 43 33.162   -06 17 33.26  .11892 1.0592 108.2 20.7 1.40   6
2019 06 20 01  22 43 54.390   -06 21 23.95  .11890 1.0592 108.1 20.7 1.41   7
2019 06 20 02  22 44 15.623   -06 25 14.68  .11888 1.0592 108.1 20.7 1.42   7
2019 06 20 03  22 44 36.862   -06 29 05.47  .11886 1.0591 108.1 20.7 1.43   7
2019 06 20 04  22 44 58.106   -06 32 56.29  .11885 1.0591 108.1 20.7 1.44   8
2019 06 20 05  22 45 19.356   -06 36 47.16  .11883 1.0591 108.1 20.7 1.45   8
2019 06 20 06  22 45 40.612   -06 40 38.07  .11882 1.0590 108.1 20.7 1.46   8
2019 06 20 07  22 46 01.872   -06 44 29.02  .11880 1.0590 108.0 20.7 1.47   9
2019 06 20 08  22 46 23.138   -06 48 20.01  .11879 1.0589 108.0 20.7 1.48   9
2019 06 20 09  22 46 44.410   -06 52 11.03  .11877 1.0589 108.0 20.7 1.49   9
2019 06 20 10  22 47 05.686   -06 56 02.09  .11876 1.0589 108.0 20.7 1.50  10
2019 06 20 11  22 47 26.968   -06 59 53.17  .11874 1.0588 108.0 20.7 1.51  10
2019 06 20 12  22 47 48.254   -07 03 44.28  .11873 1.0588 108.0 20.7 1.52  10
2019 06 20 13  22 48 09.545   -07 07 35.42  .11872 1.0588 107.9 20.7 1.53  10
2019 06 20 14  22 48 30.841   -07 11 26.58  .11870 1.0587 107.9 20.7 1.54  11
2019 06 20 15  22 48 52.142   -07 15 17.77  .11869 1.0587 107.9 20.7 1.55  11
2019 06 20 16  22 49 13.447   -07 19 08.97  .11868 1.0587 107.9 20.7 1.56  11
2019 06 20 17  22 49 34.757   -07 23 00.19  .11867 1.0586 107.9 20.7 1.58  12
2019 06 20 18  22 49 56.071   -07 26 51.43  .11866 1.0586 107.9 20.7 1.59  12
2019 06 20 19  22 50 17.390   -07 30 42.68  .11865 1.0586 107.8 20.7 1.60  12
2019 06 20 20  22 50 38.713   -07 34 33.94  .11864 1.0585 107.8 20.7 1.61  13
2019 06 20 21  22 51 00.040   -07 38 25.21  .11863 1.0585 107.8 20.7 1.62  13
2019 06 20 22  22 51 21.371   -07 42 16.49  .11862 1.0585 107.8 20.7 1.63  13
2019 06 20 23  22 51 42.707   -07 46 07.77  .11861 1.0584 107.8 20.7 1.64  14
2019 06 21 00  22 52 04.046   -07 49 59.05  .11860 1.0584 107.8 20.7 1.66  14
2019 06 21 01  22 52 25.389   -07 53 50.34  .11859 1.0584 107.7 20.7 1.67  14
2019 06 21 02  22 52 46.736   -07 57 41.62  .11858 1.0583 107.7 20.7 1.68  15
2019 06 21 03  22 53 08.086   -08 01 32.90  .11858 1.0583 107.7 20.7 1.69  15
2019 06 21 04  22 53 29.440   -08 05 24.17  .11857 1.0583 107.7 20.7 1.70  15
2019 06 21 05  22 53 50.798   -08 09 15.44  .11856 1.0582 107.7 20.7 1.71  15
2019 06 21 06  22 54 12.159   -08 13 06.69  .11856 1.0582 107.6 20.7 1.73  16
2019 06 21 07  22 54 33.524   -08 16 57.94  .11855 1.0582 107.6 20.7 1.74  16
2019 06 21 08  22 54 54.891   -08 20 49.17  .11855 1.0581 107.6 20.7 1.75  16
2019 06 21 09  22 55 16.262   -08 24 40.38  .11854 1.0581 107.6 20.7 1.76  17
2019 06 21 10  22 55 37.636   -08 28 31.57  .11854 1.0581 107.6 20.7 1.78  17
2019 06 21 11  22 55 59.013   -08 32 22.75  .11853 1.0580 107.6 20.7 1.79  17
2019 06 21 12  22 56 20.393   -08 36 13.90  .11853 1.0580 107.5 20.7 1.80  18
2019 06 21 13  22 56 41.776   -08 40 05.02  .11852 1.0580 107.5 20.7 1.81  18
2019 06 21 14  22 57 03.161   -08 43 56.12  .11852 1.0579 107.5 20.7 1.83  18
2019 06 21 15  22 57 24.549   -08 47 47.19  .11852 1.0579 107.5 20.7 1.84  19